Location: Newark
(49.8348°N, 24.0280°E)
Time: 19:59:01
(UTC+00:00)

S-56A Canister/Altair - Pass Details

Date: 04 February 2020
Orbit: 633 x 2499 km, 38.9° (Epoch: 17 February)

Event Time Altitude Azimuth Distance (km) Brightness Sun altitude
Rises 15:12:15 0° 228° (SW) 5,586 13.8 0.7°
Reaches altitude 10° 15:16:48 10° 220° (SW) 4,300 12.7 0.0°
Maximum altitude 15:25:53 31° 165° (SSE) 2,366 10.2 -1.3°
Drops below altitude 10° 15:32:25 10° 106° (ESE) 3,052 10.1 -2.3°
Sets 15:35:04 0° 96° (E) 3,783 10.5 -2.7°
